SCP
0 0 0 0 0 0 0 0 0 0 0 0 0 0 0 0 0 0 0 0 0 0 0 0 0 0 0 0 0 0 0 0 0 0 0 0 0 0 0 0 0 0 0
0 0 0 0 0 0 0 0 0 0 0 0 0 0 0 0 0 0 0 0 0 0 0 0 0 0 0 0 0 0 0 0 0 0 0 0 0 0 0 0 0 0 0
0 0 0 0 0 0 0 0 0 0 0 0 0 0 0 0 0 0 0 0 0 0 0 0 0 0 0 0 0 0 0 0 0 0 0 0 0 0 0 0 0 0 0
0 0 0 0 0 0 0 0 0 0 0 0 0 0 0 0 0 0 0 0 0 0 0 0 0 0 0 0 0 0 0 0 0 0 0 0 0 0 0 0 0 0 0
0 0 0 0 0 0 0 0 0 0 0 0 0 0 0 0 0 0 0 0 0 0 0 0 0 0 0 0 0 0 0 0 0 0 0 0 0 0 0 0 0 0 0
0 0 0 0 0 0 0 0 0 0 0 0 0 0 0 0 0 0 0 0 0 0 0 0 0 0 0 0 0 0 0 0 0 0 0 0 0 0 0 0 0 0 0
0 0 0 0 0 0 0 0 0 0 0 0 0 0 0 0 0 0 0 0 0 0 0 0 0 0 0 0 0 0 0 0 0 0 0 0 0 0 0 0 0 0 0
0 0 0 0 0 0 0 0 0 0 0 0 0 0 0 0 0 0 0 0 0 0 0 0 0 0 0 0 0 0 0 0 0 0 0 0 0 0 0 0 0 0 0
0 0 0 0 0 0 0 0 0 0 0 0 0 0 0 0 0 0 0 0 0 0 0 0 0 0 0 0 0 0 0 0 0 0 0 0 0 0 0 0 0 0 0
0 0 0 0 0 0 0 0 0 0 0 0 0 0 0 0 0 0 0 0 0 0 0 0 0 0 0 0 0 0 0 0 0 0 0 0 0 0 0 0 0 0 0
0 0 0 0 0 0 0 0 0 0 0 0 0 0 0 0 0 0 0 0 0 0 0 0 0 0 0 0 0 0 0 0 0 0 0 0 0 0 0 0 0 0 0
0 0 0 0 0 0 0 0 0 0 0 0 0 0 0 0 0 0 0 0 0 0 0 0 0 0 0 0 0 0 0 0 0 0 0 0 0 0 0 0 0 0 0
0 0 0 0 0 0 0 0 0 0 0 0 0 0 0 0 0 0 0 0 0 0 0 0 0 0 0 0 0 0 0 0 0 0 0 0 0 0 0 0 0 0 0
0 0 0 0 0 0 0 0 0 0 0 0 0 0 0 0 0 0 0 0 0 0 0 0 0 0 0 0 0 0 0 0 0 0 0 0 0 0 0 0 0 0 0
0 0 0 0 0 0 0 0 0 0 0 0 0 0 0 0 0 0 0 0 0 0 0 0 0 0 0 0 0 0 0 0 0 0 0 0 0 0 0 0 0 0 0
0 0 0 0 0 0 0 0 0 0 0 0 0 0 0 0 0 0 0 0 0 0 0 0 0 0 0 0 0 0 0 0 0 0 0 0 0 0 0 0 0 0 0
0 0 0 0 0 0 0 0 0 0 0 0 0 0 0 0 0 0 0 0 0 0 0 0 0 0 0 0 0 0 0 0 0 0 0 0 0 0 0 0 0 0 0
0 0 0 0 0 0 0 0 0 0 0 0 0 0 0 0 0 0 0 0 0 0 0 0 0 -0 0 0 0 0 0 0 0 0 0 0 0 0 0 0 0 0 0
0 0 0 0 0 0 0 0 0 0 0 0 0 0 0 0 0 0 0 0 0 0 0 0 0 -0 -0 0 0 0 0 0 0 0 0 0 0 0 0 0 0 0 0
0 0 0 0 0 0 0 0 0 0 0 0 0 0 0 0 0 0 0 0 0 0 0 0 0 0 0 0 0 0 0 0 0 0 0 0 0 0 0 0 0 0 0
0 0 0 0 0 0 0 0 0 0 0 0 0 0 0 0 -0 0 0 0 0 0 0 0 0 0 0 0 0 0 0 0 0 0 0 0 0 0 0 0 0 0 0
0 0 0 0 0 0 0 0 0 0 0 0 0 0 0 -0 -0 0 0 0 0 0 0 0 0 0 0 0 0 0 0 0 0 0 0 0 0 0 0 0 0 0 0
0 0 0 0 0 0 0 0 0 0 0 0 0 0 0 0 0 0 0 0 0 0 0 0 0 0 0 0 0 0 0 0 0 0 0 0 0 0 0 0 0 0 0
0 0 0 0 0 0 0 0 0 0 0 0 0 0 0 0 0 0 0 0 0 0 0 0 0 0 0 0 0 0 0 0 0 0 0 0 0 0 0 0 0 0 0
0 0 0 0 0 0 0 0 0 0 0 0 0 0 0 0 0 0 0 0 0 0 0 0 0 0 0 0 0 0 0 0 0 0 0 0 0 0 0 0 0 0 0
0 0 0 0 0 0 0 0 0 0 0 0 0 0 0 0 0 0 0 0 0 0 0 0 0 0 0 0 0 0 0 0 0 0 0 0 0 0 0 0 0 0 0
Wind_Speed
0 0 1 1 1 1 1 1 1 1 0 0 0 0 0 0 1 1 1 1 2 1 1 2 4 4 5 5 5 5 5 6 6 5 5 5 5 5 5 5 5 5 6
1 1 1 1 1 1 1 1 1 1 1 1 1 1 1 1 1 1 1 1 0 2 1 2 4 5 4 5 5 5 4 5 5 5 5 4 4 4 4 5 4 4 5
1 1 1 1 1 1 2 2 2 1 1 1 1 2 2 2 2 2 2 2 2 1 2 2 3 5 5 5 5 5 5 5 6 5 4 4 4 4 4 4 4 4 3
1 1 1 1 1 2 2 2 2 2 2 2 2 2 2 2 3 3 3 3 2 2 2 2 3 3 4 5 6 5 5 5 5 5 5 4 4 4 4 4 3 3 3
2 2 1 1 2 2 2 3 2 2 2 2 2 2 2 3 3 3 3 3 3 3 2 2 2 2 3 4 5 6 6 5 5 6 6 5 4 4 3 3 3 3 2
2 2 2 2 2 2 2 3 3 3 2 2 2 3 3 3 4 4 4 3 3 3 3 4 3 3 3 3 4 6 6 6 5 6 6 6 5 5 4 3 3 3 3
2 2 2 2 2 2 3 3 3 4 3 2 2 2 3 4 4 4 3 4 4 4 4 4 3 3 3 5 4 5 5 6 6 6 7 7 7 6 5 4 4 3 3
3 3 3 2 3 3 3 3 3 3 3 3 2 2 3 4 3 3 3 3 4 3 4 4 4 4 3 3 3 4 5 6 6 7 7 8 8 7 7 7 6 5 4
3 4 4 4 3 3 3 4 4 5 4 4 4 3 3 3 2 3 4 4 4 3 3 4 4 4 4 3 4 5 5 5 7 8 8 8 8 8 8 8 7 7 6
4 4 5 5 4 4 4 5 4 5 5 4 4 4 4 3 3 3 4 4 5 4 4 3 4 4 5 4 4 4 5 6 7 8 9 9 9 9 9 9 8 8 7
5 5 5 5 5 4 5 5 5 6 5 6 5 4 5 4 5 4 5 4 4 4 4 5 4 4 5 5 5 4 5 7 8 8 9 9 10 10 10 9 9 8 8
5 6 6 6 6 5 5 6 6 7 6 7 6 6 5 5 5 5 6 6 5 4 5 5 5 5 4 4 5 4 6 7 7 8 9 9 9 9 10 10 9 9 8
5 6 6 6 6 6 6 6 7 7 8 8 8 7 7 7 5 5 6 5 6 4 5 5 5 4 4 3 4 4 6 7 7 7 8 8 7 7 8 9 9 8 8
5 6 7 7 8 7 7 7 7 8 8 9 9 10 7 7 6 6 6 5 6 6 6 6 4 5 4 4 4 5 5 7 7 7 8 8 6 5 6 7 8 7 7
6 7 7 8 8 8 8 8 7 8 8 9 9 10 9 7 7 7 6 6 6 7 7 6 4 4 4 4 4 5 5 6 7 8 8 8 7 6 5 5 5 6 6
7 7 7 7 8 8 8 8 8 8 9 9 8 10 10 8 7 7 7 7 7 8 8 5 5 4 4 4 5 6 6 6 8 9 9 8 8 7 7 6 6 5 5
7 7 7 7 7 8 8 8 9 9 10 10 9 10 10 10 7 7 7 7 8 8 9 7 5 5 6 6 5 5 5 6 6 9 9 8 8 8 8 8 7 6 6
6 7 7 7 8 8 8 8 9 9 10 10 10 10 10 8 10 8 7 8 8 8 8 9 6 5 7 7 6 6 5 5 6 8 9 9 9 9 9 8 8 7 7
7 7 7 8 8 8 8 9 9 9 10 10 10 10 10 10 10 8 9 8 8 7 7 7 7 5 5 5 6 6 6 5 5 6 8 9 10 10 9 9 8 8 8
7 7 7 8 8 8 9 9 9 9 9 9 10 10 10 10 10 10 9 9 8 8 8 7 6 6 5 5 5 5 5 5 4 4 5 6 8 10 10 10 9 8 8
7 7 8 8 8 8 8 8 9 9 10 10 9 10 10 10 11 10 8 9 9 8 7 7 7 6 6 5 6 5 6 4 4 4 4 5 5 5 6 8 9 9 8
6 7 7 8 8 7 9 10 10 9 9 9 9 9 10 10 11 13 13 12 11 10 9 8 8 8 8 7 6 5 5 4 4 3 4 4 3 4 4 5 6 9 9
7 7 7 8 8 9 10 11 11 9 8 8 9 8 7 7 10 10 11 12 11 11 11 10 10 9 8 7 6 7 7 6 6 3 4 5 4 5 4 4 7 9 9
6 6 7 7 8 8 9 10 10 9 8 9 9 8 8 8 7 8 9 9 9 9 9 9 9 9 8 7 8 8 7 5 4 3 4 4 4 4 3 3 7 9 9
6 7 6 7 7 7 8 9 9 7 7 8 8 8 8 8 8 8 8 9 9 8 8 9 9 8 8 9 7 5 5 5 4 4 3 3 3 3 3 3 4 8 8
7 6 6 6 7 7 8 8 9 6 6 7 6 7 8 9 8 9 8 8 9 7 6 6 6 6 7 7 8 8 7 6 4 4 3 4 3 2 2 2 3 4 5
Wind_Direction
182 190 209 207 207 200 201 218 218 205 202 158 269 281 281 302 229 181 147 52 356 340 213 182 168 152 154 148 141 129 132 132 126 120 120 118 111 107 107 108 104 103 99
200 231 221 223 228 224 221 231 237 235 238 241 245 262 276 273 253 221 206 172 79 327 297 226 185 174 167 161 154 151 145 148 138 129 122 123 123 121 120 113 115 115 109
239 234 240 231 236 238 218 225 225 233 238 237 241 252 266 265 258 244 223 223 210 219 280 265 213 192 187 180 169 165 159 160 151 144 138 129 124 123 126 125 119 121 120
261 243 234 250 261 246 223 215 224 231 226 235 242 247 256 258 256 252 230 227 235 225 219 254 243 213 201 189 180 176 175 171 168 161 158 152 140 129 138 141 134 126 126
245 248 240 242 256 244 229 219 221 233 234 240 247 251 255 254 250 249 239 236 240 243 233 218 223 225 222 203 193 191 189 183 180 177 175 173 165 155 151 157 167 161 151
251 245 248 245 247 245 237 224 220 228 234 238 249 258 260 255 249 240 241 240 235 240 238 230 219 207 214 220 207 199 200 202 199 191 186 183 182 183 180 174 174 178 171
260 255 251 247 249 246 248 240 224 221 225 229 247 260 255 247 247 239 238 239 231 233 238 234 232 228 204 209 213 212 209 207 210 209 200 195 194 197 197 198 199 200 195
254 255 257 247 250 251 248 244 230 220 223 220 241 252 254 234 229 242 243 245 243 233 237 238 237 237 226 214 200 217 225 219 215 215 210 208 206 209 209 206 206 207 209
249 253 255 250 241 243 239 244 240 228 220 225 230 238 246 248 265 228 233 240 245 242 245 249 249 247 239 231 216 209 218 227 226 225 217 215 216 217 217 213 211 214 215
250 250 251 251 243 241 240 238 241 242 225 221 228 246 259 273 254 252 225 234 247 250 250 247 247 251 244 233 227 225 221 228 229 230 225 222 223 222 222 218 217 218 218
245 244 245 246 245 243 245 243 241 241 234 226 225 231 238 242 244 253 254 245 247 244 248 255 251 244 241 237 226 221 222 230 232 235 231 227 227 227 221 222 221 222 222
244 243 242 244 245 245 245 247 244 240 239 238 229 226 230 232 235 244 253 252 254 254 250 248 249 243 236 237 231 218 220 228 234 237 233 230 230 231 225 222 221 222 224
250 247 243 243 243 244 245 244 245 243 240 241 236 231 233 237 238 246 254 257 262 261 250 244 237 239 239 241 242 225 220 225 234 238 234 229 230 232 229 224 222 223 227
255 257 247 243 243 243 244 244 245 244 243 240 242 237 236 237 236 239 246 251 259 255 243 245 239 235 240 243 258 236 224 223 229 234 233 226 225 226 227 224 221 219 216
257 253 252 247 244 242 243 245 245 243 244 240 241 239 235 235 236 239 241 238 248 255 250 244 239 229 244 247 241 239 244 230 230 228 227 222 214 213 216 216 205 205 209
256 255 253 252 248 246 244 243 247 245 244 242 242 241 238 235 233 236 238 238 242 248 253 247 245 253 250 258 245 242 246 237 228 223 220 215 209 209 211 210 203 205 208
254 252 253 252 252 251 249 246 248 246 242 243 242 242 242 239 236 236 238 238 241 240 250 258 256 253 245 252 248 244 239 236 230 221 215 214 212 210 209 209 207 211 214
257 253 251 251 250 251 252 251 251 246 242 241 242 242 243 239 236 235 236 238 243 240 246 254 255 252 253 252 250 244 245 242 239 220 213 211 211 211 211 211 210 215 217
263 257 252 251 251 250 251 251 249 245 241 241 242 241 242 241 238 235 236 238 242 242 243 248 251 252 256 250 251 248 247 244 243 222 216 213 209 210 214 216 215 214 217
267 260 255 255 254 252 252 251 248 244 241 241 242 241 242 241 242 240 238 240 239 238 239 240 242 243 248 244 240 238 242 235 237 223 224 220 212 211 213 216 215 214 216
271 265 259 256 256 252 251 250 247 247 243 243 244 243 242 243 246 249 244 242 237 234 236 238 239 241 241 231 233 233 240 239 248 228 225 222 216 216 212 207 207 209 214
275 270 265 261 258 253 257 254 252 250 246 244 246 246 245 242 244 249 247 247 243 234 235 237 238 237 241 240 244 238 231 227 245 211 218 233 227 225 223 220 204 204 212
281 271 267 263 262 261 262 257 254 253 250 248 248 248 247 248 245 247 244 244 244 241 238 238 240 241 242 237 239 241 235 232 240 224 216 235 228 233 227 218 203 206 212
283 277 272 270 267 269 272 264 259 253 256 254 250 249 250 252 247 251 247 244 244 239 236 237 240 243 244 244 238 241 242 244 257 240 219 231 227 234 237 224 202 205 209
285 279 275 273 271 275 279 271 260 253 254 256 255 252 251 252 258 256 250 245 246 244 240 241 248 251 249 248 243 235 225 221 236 238 230 224 223 238 239 236 207 200 205
286 280 276 274 273 274 281 277 263 251 253 255 254 252 250 255 258 254 249 245 244 245 243 247 249 250 241 236 233 228 220 215 221 233 223 211 205 205 229 232 221 208 207